| time (UTC) | temp F | wind direction | speed knots | gust knots | rain 1hr in | rain 24hr in | rain mn in | humidity % | barometer mb |
| 20260504234525 | 74 | 147 | 3.5 | 6.1 | 0.00 | 0.00 | 0.00 | 39 | 1025.4 |
| 20260504233629 | 74 | 156 | 5.2 | 7.0 | 0.00 | 0.00 | 0.00 | 39 | 1024.4 |
| 20260504232708 | 75 | 154 | 5.2 | 8.7 | 0.00 | 0.00 | 0.00 | 39 | 1024.4 |
| 20260504231829 | 75 | 151 | 3.5 | 5.2 | 0.00 | 0.00 | 0.00 | 39 | 1024.4 |
| 20260504230908 | 75 | 135 | 1.7 | 2.6 | 0.00 | 0.00 | 0.00 | 39 | 1024.4 |
| 20260504230008 | 76 | 135 | 0.9 | 3.5 | 0.00 | 0.00 | 0.00 | 39 | 1024.4 |
| 20260504225408 | 76 | 135 | 1.7 | 2.6 | 0.00 | 0.00 | 0.00 | 39 | 1024.4 |
| 20260504224508 | 76 | 133 | 1.7 | 3.5 | 0.00 | 0.00 | 0.00 | 39 | 1024.4 |
| 20260504223608 | 76 | 121 | 0.9 | 3.5 | 0.00 | 0.00 | 0.00 | 38 | 1024.4 |
| 20260504222730 | 76 | 135 | 0.9 | 1.7 | 0.00 | 0.00 | 0.00 | 38 | 1024.4 |
| 20260504221808 | 76 | 125 | 1.7 | 3.5 | 0.00 | 0.00 | 0.00 | 38 | 1024.4 |
| 20260504220908 | 77 | 112 | 0.9 | 2.6 | 0.00 | 0.00 | 0.00 | 38 | 1024.4 |
| 20260504220008 | 77 | 112 | 1.7 | 1.7 | 0.00 | 0.00 | 0.00 | 38 | 1024.4 |
| 20260504215428 | 77 | 112 | 0.0 | 1.7 | 0.00 | 0.00 | 0.00 | 38 | 1024.4 |
| 20260504214508 | 77 | 112 | 0.9 | 1.7 | 0.00 | 0.00 | 0.00 | 37 | 1024.4 |
| 20260504213608 | 77 | 138 | 1.7 | 2.6 | 0.00 | 0.00 | 0.00 | 37 | 1024.4 |
| 20260504212708 | 77 | 180 | 0.0 | 1.7 | 0.00 | 0.00 | 0.00 | 37 | 1024.4 |
| 20260504211829 | 77 | 0 | 0.0 | 0.0 | 0.00 | 0.00 | 0.00 | 37 | 1024.4 |
| 20260504210929 | 78 | 0 | 0.0 | 0.0 | 0.00 | 0.00 | 0.00 | 37 | 1024.4 |
| 20260504210008 | 78 | 0 | 0.0 | 0.0 | 0.00 | 0.00 | 0.00 | 37 | 1023.3 |
| 20260504205408 | 78 | 0 | 0.0 | 0.0 | 0.00 | 0.00 | 0.00 | 37 | 1023.3 |
| 20260504204508 | 78 | 0 | 0.0 | 0.0 | 0.00 | 0.00 | 0.00 | 36 | 1023.3 |
| 20260504203607 | 78 | 0 | 0.0 | 0.0 | 0.00 | 0.00 | 0.00 | 36 | 1023.3 |
| 20260504202708 | 78 | 180 | 0.0 | 0.9 | 0.00 | 0.00 | 0.00 | 36 | 1023.3 |
| 20260504201807 | 79 | 0 | 0.0 | 0.0 | 0.00 | 0.00 | 0.00 | 36 | 1023.3 |
| 20260504200929 | 79 | 300 | 0.0 | 0.9 | 0.00 | 0.00 | 0.00 | 36 | 1023.3 |
| 20260504200007 | 79 | 339 | 0.0 | 2.6 | 0.00 | 0.00 | 0.00 | 36 | 1023.3 |
| 20260504195407 | 79 | 356 | 0.9 | 2.6 | 0.00 | 0.00 | 0.00 | 36 | 1023.3 |
| 20260504194507 | 79 | 214 | 0.0 | 2.6 | 0.00 | 0.00 | 0.00 | 36 | 1024.4 |
| 20260504193629 | 80 | 353 | 0.9 | 2.6 | 0.00 | 0.00 | 0.00 | 36 | 1023.3 |
| 20260504192707 | 80 | 345 | 0.0 | 2.6 | 0.00 | 0.00 | 0.00 | 35 | 1023.3 |
| 20260504191808 | 80 | 321 | 0.0 | 2.6 | 0.00 | 0.00 | 0.00 | 35 | 1024.4 |
| 20260504190907 | 80 | 355 | 1.7 | 3.5 | 0.00 | 0.00 | 0.00 | 35 | 1024.4 |
| 20260504190007 | 80 | 359 | 0.9 | 2.6 | 0.00 | 0.00 | 0.00 | 35 | 1024.4 |
| 20260504185428 | 80 | 349 | 0.9 | 2.6 | 0.00 | 0.00 | 0.00 | 35 | 1024.4 |
| 20260504184507 | 80 | 332 | 0.0 | 5.2 | 0.00 | 0.00 | 0.00 | 35 | 1023.3 |
| 20260504183607 | 80 | 333 | 3.5 | 5.2 | 0.00 | 0.00 | 0.00 | 35 | 1024.4 |
| 20260504182707 | 80 | 332 | 0.9 | 6.1 | 0.00 | 0.00 | 0.00 | 35 | 1024.4 |
| 20260504181807 | 81 | 336 | 0.0 | 5.2 | 0.00 | 0.00 | 0.00 | 34 | 1024.4 |
| 20260504180928 | 81 | 342 | 2.6 | 5.2 | 0.00 | 0.00 | 0.00 | 34 | 1024.4 |
| 20260504180007 | 81 | 342 | 2.6 | 5.2 | 0.00 | 0.00 | 0.00 | 34 | 1024.4 |
| 20260504175407 | 81 | 346 | 2.6 | 5.2 | 0.00 | 0.00 | 0.00 | 34 | 1024.4 |
| 20260504174507 | 81 | 9 | 0.9 | 5.2 | 0.00 | 0.00 | 0.00 | 34 | 1024.4 |
| 20260504173607 | 81 | 354 | 3.5 | 5.2 | 0.00 | 0.00 | 0.00 | 34 | 1024.4 |
| 20260504172707 | 81 | 3 | 2.6 | 7.0 | 0.00 | 0.00 | 0.00 | 34 | 1024.4 |
| 20260504171828 | 81 | 357 | 2.6 | 5.2 | 0.00 | 0.00 | 0.00 | 34 | 1024.4 |
| 20260504170907 | 82 | 331 | 3.5 | 7.0 | 0.00 | 0.00 | 0.00 | 35 | 1024.4 |
| 20260504150906 | 83 | 346 | 3.5 | 7.8 | 0.00 | 0.00 | 0.00 | 35 | 1025.4 |
| 20260504140906 | 79 | 2 | 1.7 | 5.2 | 0.00 | 0.00 | 0.00 | 39 | 1026.5 |